Location: Longueuil
(45.5369°N, 73.5107°W)
Time: 22:20:15
(UTC-05:00)

ISS - Pass Details

Date: 30 November 2024
Orbit: 411 x 421 km, 51.6° (Epoch: 03 December)

Event Time Altitude Azimuth Distance (km) Brightness Sun altitude
Rises 17:56:24 0° 297° (WNW) 2,375 0.9 -17.7°
Reaches altitude 10° 17:58:31 10° 293° (WNW) 1,508 -0.2 -18.0°
Maximum altitude 18:01:51 57° 214° (SW) 499 -3.2 -18.6°
Enters shadow 18:03:04 34° 151° (SSE) 719 -2.8 -18.8°
